SCP
0 0 0 0 0 0 0 0 0 0 0 0 0 0 0 -0 0 0 0 0 0 0 0 0 0 0 0 1 2 1 2 3 1 1 0 0 0 0 0 0 0 0 0 0
0 0 0 0 0 0 0 0 0 0 0 0 0 0 0 -0 -0 0 0 0 0 0 0 0 0 0 0 1 1 1 1 2 1 1 0 0 0 0 0 0 0 0 0 0
0 0 0 0 0 0 0 0 0 0 0 0 0 0 -0 -0 -0 -0 0 0 0 0 0 0 0 0 1 1 1 1 1 1 1 1 0 0 0 0 0 0 0 0 0 0
0 0 0 0 0 0 0 0 0 0 0 0 0 -0 -0 -0 0 0 0 0 0 0 0 0 0 0 1 1 2 1 2 1 1 0 0 0 0 0 0 0 0 0 1 0
0 0 0 0 0 0 0 0 0 0 0 0 0 0 -0 -0 0 0 0 0 0 0 0 0 0 0 0 0 3 2 2 2 1 1 1 0 0 0 0 0 1 1 1 0
0 0 0 0 0 0 0 0 0 0 0 0 0 0 -0 -0 -0 0 0 0 0 0 0 0 0 0 0 1 1 4 4 2 2 1 1 1 0 1 1 1 1 1 0 0
0 0 0 0 0 0 0 0 0 0 0 0 0 0 0 0 0 0 0 0 0 0 0 0 0 0 0 0 1 2 6 4 2 1 1 2 1 1 1 2 1 0 0 0
0 0 0 0 0 0 -0 0 0 0 0 0 0 0 0 -0 0 0 0 0 0 0 0 0 0 0 0 0 0 1 2 4 3 1 1 2 2 2 2 1 1 0 0 0
0 0 0 0 0 0 0 0 0 0 0 0 0 0 0 -0 0 0 0 0 0 0 0 0 0 0 0 0 0 1 1 4 3 2 2 2 2 2 2 1 0 0 0 0
0 0 0 0 0 0 0 0 0 0 0 0 -0 -0 0 0 0 0 0 0 0 0 0 0 0 0 0 0 0 0 1 2 4 2 2 3 3 2 1 1 0 0 0 0
0 0 0 0 0 0 0 0 0 0 0 -0 0 -0 0 0 0 0 0 0 0 0 0 0 0 0 0 0 0 0 1 1 3 3 3 3 3 2 1 0 0 0 0 0
0 0 0 0 -0 0 0 0 0 0 0 0 0 0 0 -0 0 0 0 0 -0 -0 0 0 0 0 0 0 0 0 0 1 3 3 3 4 3 2 1 0 0 0 0 0
0 0 0 0 0 0 0 0 0 0 0 0 0 0 0 0 0 0 0 -0 -0 -0 -0 0 0 0 0 0 0 0 1 1 3 3 3 3 2 1 0 0 0 0 0 0
0 0 0 0 0 0 0 0 0 0 0 0 0 0 0 0 0 0 0 0 -0 -0 -0 -0 0 0 0 0 0 0 1 2 2 3 4 3 3 1 0 0 0 0 0 0
0 0 0 0 0 0 0 0 0 0 0 0 0 0 0 0 0 0 -0 -0 0 -0 -0 -0 -0 -0 0 0 0 0 1 2 2 3 4 3 2 0 0 0 0 0 0 0
0 0 0 0 0 0 0 0 0 0 0 0 0 0 0 0 0 0 -0 0 0 -0 -0 -0 -0 0 0 0 1 0 1 1 3 3 4 2 1 0 0 0 0 0 0 0
0 0 0 0 0 0 0 0 0 0 0 0 0 0 -0 -0 -0 0 0 0 0 -0 -0 0 0 0 0 0 0 1 1 2 2 4 3 1 0 0 0 0 0 0 0 0
0 0 0 0 -0 0 0 0 0 0 0 0 0 0 0 0 0 0 -0 -0 0 0 0 0 0 0 0 0 1 1 2 2 2 3 2 1 0 0 0 0 0 0 0 0
0 0 0 0 0 0 0 0 0 0 -0 0 0 0 0 0 -0 -0 0 0 0 0 0 0 0 0 0 0 0 1 1 2 2 2 1 0 0 0 0 0 0 0 0 0
0 0 0 0 0 0 0 0 0 0 0 0 0 0 -0 0 0 -0 0 0 0 0 0 0 0 0 0 -0 0 1 2 1 0 0 0 0 0 0 0 0 0 0 0 0
-0 0 0 0 0 0 0 0 0 0 0 0 -0 -0 -0 -0 -0 -0 -0 0 0 0 0 0 0 0 0 0 1 1 0 0 0 0 0 0 0 0 0 0 0 0 0 0
-0 -0 0 0 0 0 0 0 0 0 0 -0 -0 0 -0 -0 -0 -0 -0 0 0 0 0 0 0 0 0 0 0 0 0 0 0 0 0 0 0 0 0 0 0 0 0 0
-0 0 0 0 0 0 0 0 0 0 -0 -0 -0 0 0 -0 0 0 0 0 0 0 0 0 0 0 0 0 0 0 0 0 0 0 0 0 0 0 0 0 0 0 0 0
0 0 0 0 0 0 0 0 0 0 -0 -0 -0 0 0 0 0 0 0 0 0 0 0 0 0 0 0 0 0 0 0 0 0 0 0 0 0 0 0 0 0 0 0 0
0 0 0 0 0 0 0 -0 0 0 -0 -0 0 -0 0 0 0 0 0 0 0 0 0 0 0 0 0 0 0 0 0 0 0 0 0 0 0 0 0 0 0 0 0 0
0 -0 0 0 0 0 0 -0 -0 0 -0 -0 -0 0 -0 0 0 0 0 0 0 0 0 0 0 0 0 0 0 0 0 0 0 0 0 0 0 0 0 0 0 0 0 0
Wind_Speed_500mb
6 2 14 26 27 32 20 17 30 29 25 11 32 33 50 26 33 39 46 55 51 46 44 34 22 26 27 32 41 29 67 71 86 90 93 91 84 74 66 59 51 50 51 47
8 11 24 13 15 20 23 26 34 31 25 14 24 35 52 31 27 45 51 53 56 53 38 36 26 29 33 33 39 58 58 78 85 92 95 93 82 75 66 58 54 51 54 49
10 14 10 19 25 27 28 19 30 27 8 12 13 43 46 33 39 49 58 65 59 54 45 44 43 37 37 34 38 57 63 61 67 93 96 86 76 77 70 65 59 59 57 49
12 9 15 25 22 17 19 9 13 11 7 13 8 29 41 19 34 27 34 52 65 67 59 51 53 53 45 38 44 44 59 58 57 82 87 85 83 83 74 67 60 60 60 53
15 11 31 31 12 6 12 8 12 14 21 11 13 12 18 5 16 19 20 56 62 58 50 45 46 54 57 51 48 44 45 59 60 69 78 79 80 79 75 75 65 66 61 56
18 17 9 12 8 6 5 8 26 9 4 12 23 24 15 8 13 11 15 42 52 48 39 36 34 37 58 65 65 50 53 55 64 73 80 84 87 86 80 77 79 73 69 64
17 8 11 8 7 6 12 10 7 9 6 12 3 9 26 18 24 17 20 33 34 29 32 33 35 41 49 52 65 68 63 52 60 74 88 92 89 84 83 71 84 81 76 60
8 31 4 3 10 16 15 11 5 11 7 8 12 12 12 20 26 34 30 29 20 30 33 32 30 34 45 52 69 71 68 60 68 77 86 99 91 90 79 72 78 79 67 65
10 20 21 29 39 7 2 7 3 9 12 15 10 11 18 28 25 20 23 25 25 24 25 15 23 27 38 53 64 76 76 76 68 75 88 96 93 90 83 76 76 67 65 63
11 38 7 3 6 15 14 7 2 6 7 12 9 9 19 14 17 12 10 14 18 23 26 24 12 21 21 45 53 77 79 72 77 70 72 89 98 90 86 72 71 64 64 66
8 11 18 15 8 7 3 5 10 5 7 7 9 10 13 15 15 11 11 17 21 32 35 33 28 24 19 31 60 66 79 84 77 72 70 73 87 92 83 77 72 73 72 77
9 8 17 31 41 20 12 13 9 8 6 10 9 19 16 36 6 7 7 24 32 34 43 43 40 35 29 22 47 73 78 85 84 80 70 74 84 98 82 78 76 70 82 79
6 6 16 11 3 4 5 9 15 20 12 34 29 16 4 3 12 21 32 30 36 55 56 47 49 44 40 36 29 67 83 85 90 86 68 82 76 83 82 78 73 76 75 86
19 8 15 24 28 28 40 37 30 29 17 31 36 62 35 38 39 25 48 59 55 55 61 61 59 54 43 47 37 51 72 80 91 88 80 87 81 80 77 74 65 78 69 69
5 14 19 25 36 42 49 49 48 44 48 38 52 50 41 31 25 33 50 53 51 52 68 66 72 65 52 52 43 48 67 81 88 85 81 87 92 79 84 82 93 81 67 62
5 11 11 24 42 35 46 42 36 43 48 49 55 48 23 33 32 40 51 36 35 46 63 75 74 68 58 50 38 51 69 77 80 81 88 96 97 94 88 87 95 79 76 66
7 7 9 35 20 36 18 8 2 7 9 12 28 40 41 48 48 37 49 49 49 61 72 78 73 69 60 51 36 50 70 80 84 88 94 103 105 99 98 104 93 80 76 64
7 7 8 13 20 7 5 6 6 16 32 34 45 51 39 25 41 56 69 68 74 76 82 94 77 60 49 38 36 44 73 88 91 93 102 110 108 106 109 102 94 93 90 88
12 6 10 8 11 36 10 6 8 22 71 32 31 16 33 71 78 80 83 83 90 87 86 86 68 50 40 41 50 45 71 82 82 103 111 111 106 117 107 102 94 88 83 86
2 10 9 14 11 10 3 7 25 23 26 6 26 51 55 52 33 40 46 34 25 28 39 53 51 39 38 48 48 58 74 81 60 115 108 113 107 117 112 108 95 95 93 89
17 11 12 17 15 15 6 18 21 7 18 59 77 74 58 37 47 98 100 62 56 58 44 38 39 29 39 41 49 61 77 99 113 112 106 107 107 120 123 111 101 101 92 91
8 9 6 8 8 12 13 35 23 22 68 74 95 96 82 90 84 69 62 52 44 39 33 44 43 43 48 52 68 78 87 93 107 111 111 116 123 120 115 101 99 102 100 95
8 13 11 7 16 49 56 41 61 64 67 80 88 105 96 96 70 5 23 32 36 37 46 51 54 64 62 70 81 94 94 103 110 110 111 114 121 121 107 110 110 107 101 96
10 8 8 11 17 24 47 41 60 77 78 101 91 91 88 64 23 43 49 47 48 47 48 70 80 78 79 77 87 99 105 108 113 117 119 130 130 120 106 112 110 107 99 98
17 6 7 17 24 36 12 58 72 89 99 90 93 74 36 22 33 42 56 60 68 75 80 74 91 89 89 84 90 93 101 111 120 125 131 119 102 120 123 113 104 91 93 88
10 10 5 17 19 17 42 66 75 85 85 87 85 71 43 36 45 59 68 69 73 74 85 91 93 95 92 98 94 93 99 118 130 127 128 126 129 111 105 97 97 87 78 70
Wind_Direction_500mb
341 81 243 238 217 249 265 256 261 272 272 271 274 281 279 281 259 267 274 283 278 282 286 290 288 240 226 230 200 227 210 207 204 225 221 218 213 209 207 207 204 202 195 194
339 243 256 311 288 266 264 261 264 270 269 221 271 275 278 281 257 255 263 261 270 274 270 270 276 231 218 231 219 204 220 220 228 227 219 216 209 210 209 205 202 197 195 194
236 261 318 319 306 287 277 259 271 264 285 250 279 277 285 284 262 260 252 258 262 261 257 259 251 242 235 235 233 224 218 216 225 220 211 211 208 210 206 206 199 193 193 197
259 262 311 314 299 273 286 298 309 289 329 278 131 288 287 266 262 245 248 248 252 259 262 259 249 238 239 235 242 233 234 222 219 216 208 206 209 206 203 201 195 193 194 198
258 287 312 310 248 302 260 307 275 270 272 285 223 259 274 165 272 257 234 246 258 265 264 261 256 242 229 223 242 229 234 230 216 219 210 205 207 209 202 200 194 194 191 197
253 283 236 226 276 266 357 336 317 313 213 250 214 204 271 226 228 252 239 244 263 270 273 270 262 241 226 212 222 237 229 232 226 223 210 208 207 206 204 200 197 193 191 184
301 251 268 217 258 319 57 358 300 332 209 237 295 281 256 281 270 252 259 270 281 293 288 274 257 239 234 224 220 227 236 221 224 229 215 214 214 207 203 203 199 193 189 182
309 314 224 111 204 289 285 184 220 253 244 267 324 252 260 251 268 287 285 278 296 329 305 268 248 225 222 217 215 223 238 214 208 228 223 214 212 208 214 219 210 198 193 184
326 285 298 276 279 213 181 200 210 265 234 267 228 297 290 260 272 278 272 277 298 343 8 338 243 238 234 226 219 221 224 234 213 221 219 219 216 218 221 217 215 208 198 192
242 295 269 332 276 219 162 167 255 207 270 262 261 242 236 279 285 298 337 343 323 343 7 24 336 275 263 234 218 218 219 228 231 218 219 218 222 216 216 215 214 215 208 204
257 218 277 319 252 204 129 248 224 251 226 269 288 242 223 240 258 286 298 325 341 345 344 343 339 338 261 248 227 220 220 223 234 222 216 216 217 211 211 216 221 220 209 197
229 252 279 285 283 302 230 242 206 232 244 241 256 251 265 271 259 174 264 304 319 319 326 326 323 321 325 271 226 220 221 220 225 227 213 211 210 212 214 218 218 216 193 178
192 248 298 297 84 198 253 220 213 235 252 249 262 260 73 222 305 328 324 323 314 313 310 312 304 309 313 312 251 224 222 222 220 221 197 199 204 207 205 208 208 188 192 186
230 228 238 281 277 295 285 267 255 257 257 275 251 272 276 279 297 330 314 302 303 312 307 302 295 296 302 305 270 230 222 223 221 214 195 191 191 195 200 199 199 185 178 162
205 259 256 250 271 283 274 275 273 262 263 260 276 271 273 286 296 298 292 283 285 293 297 297 287 289 292 300 269 236 222 221 214 208 190 184 191 200 198 184 176 168 161 156
230 274 267 275 285 276 281 276 265 266 265 265 265 273 273 269 268 283 275 260 267 279 286 286 284 279 281 291 268 231 215 203 196 195 186 179 182 185 187 181 170 164 158 156
230 266 279 294 303 305 290 299 261 300 288 278 286 289 296 289 285 275 269 263 265 273 274 276 278 272 276 281 262 232 208 192 179 186 180 178 181 178 179 173 162 162 162 159
247 247 277 294 322 292 218 101 281 259 267 267 268 281 293 287 286 281 268 267 270 265 265 272 273 265 267 268 239 220 194 186 178 175 175 172 175 170 170 165 166 167 168 167
212 307 291 286 281 278 319 30 312 311 300 287 269 291 296 298 295 277 271 267 255 252 260 265 260 251 258 238 226 207 185 180 173 166 174 175 175 168 172 168 166 167 167 162
189 235 252 295 282 292 236 251 297 289 279 84 323 300 291 297 290 281 290 272 254 236 260 251 232 228 231 231 226 191 175 187 167 178 181 179 177 173 170 172 171 165 166 160
311 292 249 266 265 265 215 314 314 287 305 320 308 300 297 284 264 271 278 264 257 260 265 223 207 195 208 208 181 181 176 173 169 168 175 176 178 173 172 166 160 158 160 156
283 298 281 268 274 285 303 326 324 292 297 301 300 302 303 300 296 283 266 248 236 239 222 184 167 162 163 168 170 169 159 162 171 166 165 169 170 166 161 156 156 159 160 157
275 219 285 261 267 292 312 306 303 301 292 301 303 304 305 304 315 5 183 188 196 187 163 155 157 145 144 156 167 168 154 163 164 164 159 156 163 154 155 155 161 159 160 156
275 203 238 297 272 300 312 314 313 315 310 313 311 307 308 299 79 102 114 126 137 142 144 148 146 138 139 143 149 153 158 162 161 155 152 149 147 149 155 157 160 159 159 159
270 322 256 260 284 318 304 323 321 325 327 325 330 338 5 105 122 102 108 110 120 126 136 146 135 135 140 147 143 149 154 158 150 150 148 148 151 150 152 155 155 159 166 166
200 230 267 298 336 306 308 322 333 330 332 341 345 5 56 94 101 99 100 106 112 113 125 124 129 135 131 137 140 148 151 151 145 138 143 147 148 148 146 152 155 161 160 160
Wind_Speed_850mb
6 2 14 26 27 32 20 17 30 29 25 11 32 33 50 26 33 39 46 55 51 46 44 34 22 26 27 32 41 29 67 71 86 90 93 91 84 74 66 59 51 50 51 47
8 11 24 13 15 20 23 26 34 31 25 14 24 35 52 31 27 45 51 53 56 53 38 36 26 29 33 33 39 58 58 78 85 92 95 93 82 75 66 58 54 51 54 49
10 14 10 19 25 27 28 19 30 27 8 12 13 43 46 33 39 49 58 65 59 54 45 44 43 37 37 34 38 57 63 61 67 93 96 86 76 77 70 65 59 59 57 49
12 9 15 25 22 17 19 9 13 11 7 13 8 29 41 19 34 27 34 52 65 67 59 51 53 53 45 38 44 44 59 58 57 82 87 85 83 83 74 67 60 60 60 53
15 11 31 31 12 6 12 8 12 14 21 11 13 12 18 5 16 19 20 56 62 58 50 45 46 54 57 51 48 44 45 59 60 69 78 79 80 79 75 75 65 66 61 56
18 17 9 12 8 6 5 8 26 9 4 12 23 24 15 8 13 11 15 42 52 48 39 36 34 37 58 65 65 50 53 55 64 73 80 84 87 86 80 77 79 73 69 64
17 8 11 8 7 6 12 10 7 9 6 12 3 9 26 18 24 17 20 33 34 29 32 33 35 41 49 52 65 68 63 52 60 74 88 92 89 84 83 71 84 81 76 60
8 31 4 3 10 16 15 11 5 11 7 8 12 12 12 20 26 34 30 29 20 30 33 32 30 34 45 52 69 71 68 60 68 77 86 99 91 90 79 72 78 79 67 65
10 20 21 29 39 7 2 7 3 9 12 15 10 11 18 28 25 20 23 25 25 24 25 15 23 27 38 53 64 76 76 76 68 75 88 96 93 90 83 76 76 67 65 63
11 38 7 3 6 15 14 7 2 6 7 12 9 9 19 14 17 12 10 14 18 23 26 24 12 21 21 45 53 77 79 72 77 70 72 89 98 90 86 72 71 64 64 66
8 11 18 15 8 7 3 5 10 5 7 7 9 10 13 15 15 11 11 17 21 32 35 33 28 24 19 31 60 66 79 84 77 72 70 73 87 92 83 77 72 73 72 77
9 8 17 31 41 20 12 13 9 8 6 10 9 19 16 36 6 7 7 24 32 34 43 43 40 35 29 22 47 73 78 85 84 80 70 74 84 98 82 78 76 70 82 79
6 6 16 11 3 4 5 9 15 20 12 34 29 16 4 3 12 21 32 30 36 55 56 47 49 44 40 36 29 67 83 85 90 86 68 82 76 83 82 78 73 76 75 86
19 8 15 24 28 28 40 37 30 29 17 31 36 62 35 38 39 25 48 59 55 55 61 61 59 54 43 47 37 51 72 80 91 88 80 87 81 80 77 74 65 78 69 69
5 14 19 25 36 42 49 49 48 44 48 38 52 50 41 31 25 33 50 53 51 52 68 66 72 65 52 52 43 48 67 81 88 85 81 87 92 79 84 82 93 81 67 62
5 11 11 24 42 35 46 42 36 43 48 49 55 48 23 33 32 40 51 36 35 46 63 75 74 68 58 50 38 51 69 77 80 81 88 96 97 94 88 87 95 79 76 66
7 7 9 35 20 36 18 8 2 7 9 12 28 40 41 48 48 37 49 49 49 61 72 78 73 69 60 51 36 50 70 80 84 88 94 103 105 99 98 104 93 80 76 64
7 7 8 13 20 7 5 6 6 16 32 34 45 51 39 25 41 56 69 68 74 76 82 94 77 60 49 38 36 44 73 88 91 93 102 110 108 106 109 102 94 93 90 88
12 6 10 8 11 36 10 6 8 22 71 32 31 16 33 71 78 80 83 83 90 87 86 86 68 50 40 41 50 45 71 82 82 103 111 111 106 117 107 102 94 88 83 86
2 10 9 14 11 10 3 7 25 23 26 6 26 51 55 52 33 40 46 34 25 28 39 53 51 39 38 48 48 58 74 81 60 115 108 113 107 117 112 108 95 95 93 89
17 11 12 17 15 15 6 18 21 7 18 59 77 74 58 37 47 98 100 62 56 58 44 38 39 29 39 41 49 61 77 99 113 112 106 107 107 120 123 111 101 101 92 91
8 9 6 8 8 12 13 35 23 22 68 74 95 96 82 90 84 69 62 52 44 39 33 44 43 43 48 52 68 78 87 93 107 111 111 116 123 120 115 101 99 102 100 95
8 13 11 7 16 49 56 41 61 64 67 80 88 105 96 96 70 5 23 32 36 37 46 51 54 64 62 70 81 94 94 103 110 110 111 114 121 121 107 110 110 107 101 96
10 8 8 11 17 24 47 41 60 77 78 101 91 91 88 64 23 43 49 47 48 47 48 70 80 78 79 77 87 99 105 108 113 117 119 130 130 120 106 112 110 107 99 98
17 6 7 17 24 36 12 58 72 89 99 90 93 74 36 22 33 42 56 60 68 75 80 74 91 89 89 84 90 93 101 111 120 125 131 119 102 120 123 113 104 91 93 88
10 10 5 17 19 17 42 66 75 85 85 87 85 71 43 36 45 59 68 69 73 74 85 91 93 95 92 98 94 93 99 118 130 127 128 126 129 111 105 97 97 87 78 70
Wind_Direction_850mb
341 81 243 238 217 249 265 256 261 272 272 271 274 281 279 281 259 267 274 283 278 282 286 290 288 240 226 230 200 227 210 207 204 225 221 218 213 209 207 207 204 202 195 194
339 243 256 311 288 266 264 261 264 270 269 221 271 275 278 281 257 255 263 261 270 274 270 270 276 231 218 231 219 204 220 220 228 227 219 216 209 210 209 205 202 197 195 194
236 261 318 319 306 287 277 259 271 264 285 250 279 277 285 284 262 260 252 258 262 261 257 259 251 242 235 235 233 224 218 216 225 220 211 211 208 210 206 206 199 193 193 197
259 262 311 314 299 273 286 298 309 289 329 278 131 288 287 266 262 245 248 248 252 259 262 259 249 238 239 235 242 233 234 222 219 216 208 206 209 206 203 201 195 193 194 198
258 287 312 310 248 302 260 307 275 270 272 285 223 259 274 165 272 257 234 246 258 265 264 261 256 242 229 223 242 229 234 230 216 219 210 205 207 209 202 200 194 194 191 197
253 283 236 226 276 266 357 336 317 313 213 250 214 204 271 226 228 252 239 244 263 270 273 270 262 241 226 212 222 237 229 232 226 223 210 208 207 206 204 200 197 193 191 184
301 251 268 217 258 319 57 358 300 332 209 237 295 281 256 281 270 252 259 270 281 293 288 274 257 239 234 224 220 227 236 221 224 229 215 214 214 207 203 203 199 193 189 182
309 314 224 111 204 289 285 184 220 253 244 267 324 252 260 251 268 287 285 278 296 329 305 268 248 225 222 217 215 223 238 214 208 228 223 214 212 208 214 219 210 198 193 184
326 285 298 276 279 213 181 200 210 265 234 267 228 297 290 260 272 278 272 277 298 343 8 338 243 238 234 226 219 221 224 234 213 221 219 219 216 218 221 217 215 208 198 192
242 295 269 332 276 219 162 167 255 207 270 262 261 242 236 279 285 298 337 343 323 343 7 24 336 275 263 234 218 218 219 228 231 218 219 218 222 216 216 215 214 215 208 204
257 218 277 319 252 204 129 248 224 251 226 269 288 242 223 240 258 286 298 325 341 345 344 343 339 338 261 248 227 220 220 223 234 222 216 216 217 211 211 216 221 220 209 197
229 252 279 285 283 302 230 242 206 232 244 241 256 251 265 271 259 174 264 304 319 319 326 326 323 321 325 271 226 220 221 220 225 227 213 211 210 212 214 218 218 216 193 178
192 248 298 297 84 198 253 220 213 235 252 249 262 260 73 222 305 328 324 323 314 313 310 312 304 309 313 312 251 224 222 222 220 221 197 199 204 207 205 208 208 188 192 186
230 228 238 281 277 295 285 267 255 257 257 275 251 272 276 279 297 330 314 302 303 312 307 302 295 296 302 305 270 230 222 223 221 214 195 191 191 195 200 199 199 185 178 162
205 259 256 250 271 283 274 275 273 262 263 260 276 271 273 286 296 298 292 283 285 293 297 297 287 289 292 300 269 236 222 221 214 208 190 184 191 200 198 184 176 168 161 156
230 274 267 275 285 276 281 276 265 266 265 265 265 273 273 269 268 283 275 260 267 279 286 286 284 279 281 291 268 231 215 203 196 195 186 179 182 185 187 181 170 164 158 156
230 266 279 294 303 305 290 299 261 300 288 278 286 289 296 289 285 275 269 263 265 273 274 276 278 272 276 281 262 232 208 192 179 186 180 178 181 178 179 173 162 162 162 159
247 247 277 294 322 292 218 101 281 259 267 267 268 281 293 287 286 281 268 267 270 265 265 272 273 265 267 268 239 220 194 186 178 175 175 172 175 170 170 165 166 167 168 167
212 307 291 286 281 278 319 30 312 311 300 287 269 291 296 298 295 277 271 267 255 252 260 265 260 251 258 238 226 207 185 180 173 166 174 175 175 168 172 168 166 167 167 162
189 235 252 295 282 292 236 251 297 289 279 84 323 300 291 297 290 281 290 272 254 236 260 251 232 228 231 231 226 191 175 187 167 178 181 179 177 173 170 172 171 165 166 160
311 292 249 266 265 265 215 314 314 287 305 320 308 300 297 284 264 271 278 264 257 260 265 223 207 195 208 208 181 181 176 173 169 168 175 176 178 173 172 166 160 158 160 156
283 298 281 268 274 285 303 326 324 292 297 301 300 302 303 300 296 283 266 248 236 239 222 184 167 162 163 168 170 169 159 162 171 166 165 169 170 166 161 156 156 159 160 157
275 219 285 261 267 292 312 306 303 301 292 301 303 304 305 304 315 5 183 188 196 187 163 155 157 145 144 156 167 168 154 163 164 164 159 156 163 154 155 155 161 159 160 156
275 203 238 297 272 300 312 314 313 315 310 313 311 307 308 299 79 102 114 126 137 142 144 148 146 138 139 143 149 153 158 162 161 155 152 149 147 149 155 157 160 159 159 159
270 322 256 260 284 318 304 323 321 325 327 325 330 338 5 105 122 102 108 110 120 126 136 146 135 135 140 147 143 149 154 158 150 150 148 148 151 150 152 155 155 159 166 166
200 230 267 298 336 306 308 322 333 330 332 341 345 5 56 94 101 99 100 106 112 113 125 124 129 135 131 137 140 148 151 151 145 138 143 147 148 148 146 152 155 161 160 160